Tracking 18987 objects as of 25-Feb-2018
HD Live streaming from Space Station
objects crossing your sky now

NOAA 16 DEB

Track NOAA 16 DEB now!
10-day predictions


NORAD ID: 42382
Int'l Code: 2000-055SA
Perigee: 843.8 km
Apogee: 918.8 km
Inclination: 99.0 °
Period: 102.4 minutes
Semi major axis: 7252 km
RCS: Unknown
Launch date: September 21, 2000
Source: United States (US)
Launch site: AIR FORCE WESTERN TEST RANGE (AFWTR)

Note: This is SATELLITE DEBRIS
aabbcc
Your satellite tracking list
Your tracking list is empty




NASA's NSSDC Master Catalog

Two Line Element Set (TLE):
1 42382U 00055SA  18055.01011394 +.00000793 +00000-0 +50699-3 0  9998
2 42382 098.9664 128.1870 0051689 121.9121 238.7090 14.05685630100699
Source of the keplerian elements: AFSPC